Cairo, Egypt

11:51 PM EET on February 20, 2018 (GMT +0200)
Cairo International Airport

Weather History for HECA - May, 2014

Change the Weather History Date:

Wednesday, May 21, 2014

  Actual Average Record
Temperature  
Mean Temperature 82 °F -  
Max Temperature 87 °F 90 °F 96 °F (2001)
Min Temperature 76 °F 68 °F 44 °F (2004)
Cooling Degree Days 16    
Growing Degree Days 32 (Base 50)    
Moisture  
Dew Point 53 °F    
Average Humidity 37    
Maximum Humidity 57    
Minimum Humidity 12    
Precipitation  
Precipitation 0.00 in 0.00 in - ()
Sea Level Pressure  
Sea Level Pressure 29.79 in    
Wind  
Wind Speed 9 mph ()    
Max Wind Speed 16 mph    
Max Gust Speed -    
Visibility 4.6 miles    
Events      
Averages and records for this station are not official NWS values.
T = Trace of Precipitation, MM = Missing Value Source: Averaged Metar Reports

Daily Weather History Graph

Daily Weather History Graph

Search for Another Location

Airport or City:

Trip Planner

Search our weather history database for the weather conditions in past years. The results will help you decide how hot, cold, wet, or windy it might be!

Date:

Astronomy

May. 21, 2014 Rise Set
Actual Time 5:57 AM EEST 7:44 PM EEST
Civil Twilight 5:31 AM EEST 8:11 PM EEST
Nautical Twilight 4:59 AM EEST 8:43 PM EEST
Astronomical Twilight 4:25 AM EEST 9:17 PM EEST
Moon 12:53 AM EEST (5/21) 12:35 PM EEST (5/21)
Length of Visible Light 14h 40m
Length of Day
13h 47m
Waning Gibbous, 52% of the Moon is Illuminated
May 21
Waning Gibbous
May 21
Last Quarter
May 28
New
Jun 5
First Quarter
Jun 13
Full

Hourly Weather History & Observations

Time (EEST) Temp. Heat Index Dew Point Humidity Pressure Visibility Wind Dir Wind Speed Gust Speed Precip Events Conditions
12:00 AM 85 °F - 41 °F 12% 29.82 in 6 mi SE 16.1 mph - -  
12:00 AM 86.0 °F - 41.0 °F 20% 29.83 in - SE 4.6 mph - N/A   Clear
12:30 AM 86.0 °F - 41.0 °F 20% 29.83 in - SE 4.6 mph - N/A   Clear
1:00 AM 86.0 °F - 41.0 °F 20% 29.80 in - SSE 5.8 mph - N/A   Clear
1:30 AM 86.0 °F - 41.0 °F 20% 29.80 in - SSE 5.8 mph - N/A   Clear
2:00 AM 84.2 °F - 41.0 °F 22% 29.77 in - South 8.1 mph - N/A   Clear
2:30 AM 84.2 °F - 41.0 °F 22% 29.77 in - South 8.1 mph - N/A   Clear
3:00 AM 84 °F - 42 °F 13% 29.76 in 6 mi South 6.9 mph - -  
3:00 AM 84.2 °F - 41.0 °F 22% 29.77 in - South 6.9 mph - N/A   Clear
3:30 AM 82.4 °F - 46.4 °F 28% 29.77 in - West 11.5 mph - N/A   Clear
4:00 AM 80.6 °F - 44.6 °F 28% 29.74 in - WSW 2.3 mph - N/A   Clear
4:30 AM 82.4 °F - 42.8 °F 25% 29.74 in - Calm Calm - N/A   Clear
5:00 AM 82.4 °F - 42.8 °F 25% 29.74 in - South 9.2 mph - N/A   Clear
5:30 AM 82.4 °F - 42.8 °F 25% 29.74 in - SSW 12.7 mph - N/A   Clear
6:00 AM 81 °F - 46 °F 19% 29.76 in 6 mi WSW 10.4 mph - -  
6:00 AM 80.6 °F - 46.4 °F 30% 29.77 in - WSW 10.4 mph - N/A   Clear
6:30 AM 77.0 °F - 51.8 °F 41% 29.77 in 3.7 mi WSW 9.2 mph - N/A   Unknown
7:00 AM 77.0 °F - 55.4 °F 47% 29.77 in 3.7 mi WSW 10.4 mph - N/A   Unknown
7:30 AM 77.0 °F - 59.0 °F 54% 29.77 in 3.7 mi WSW 8.1 mph - N/A   Unknown
8:00 AM 77.0 °F - 60.8 °F 57% 29.80 in 3.7 mi West 10.4 mph - N/A   Unknown
8:30 AM 77.0 °F - 60.8 °F 57% 29.80 in 3.7 mi West 11.5 mph - N/A   Unknown
9:00 AM 77 °F - 60 °F 46% 29.80 in 4 mi WSW 9.2 mph - -   Haze
9:00 AM 77.0 °F - 60.8 °F 57% 29.80 in 3.7 mi WSW 9.2 mph - N/A   Unknown
9:30 AM 78.8 °F - 62.6 °F 57% 29.80 in 3.7 mi WSW 9.2 mph - N/A   Unknown
10:00 AM 78.8 °F - 62.6 °F 57% 29.80 in 3.7 mi WSW 9.2 mph - N/A   Unknown
10:30 AM 78.8 °F - 62.6 °F 57% 29.80 in 3.7 mi WSW 9.2 mph - N/A   Unknown
11:00 AM 80.6 °F 81.8 °F 62.6 °F 54% 29.83 in 3.7 mi WSW 10.4 mph - N/A   Unknown
11:30 AM 80.6 °F 81.5 °F 60.8 °F 51% 29.80 in - West 10.4 mph - N/A   Clear
12:00 PM 82 °F - 62 °F 42% 29.82 in 6 mi West 10.4 mph - -  
12:00 PM 82.4 °F 83.4 °F 62.6 °F 51% 29.83 in - West 10.4 mph - N/A   Clear
12:30 PM 82.4 °F 83.4 °F 62.6 °F 51% 29.83 in - West 10.4 mph - N/A   Clear
1:00 PM 86.0 °F 85.4 °F 59.0 °F 40% 29.80 in - West 11.5 mph - N/A   Clear
1:30 PM 86.0 °F 85.4 °F 59.0 °F 40% 29.80 in - West 11.5 mph - N/A   Clear
2:00 PM 86.0 °F 84.9 °F 57.2 °F 37% 29.80 in - West 11.5 mph - N/A   Clear
2:30 PM 86.0 °F 84.9 °F 57.2 °F 37% 29.80 in - West 11.5 mph - N/A   Clear
3:00 PM 87 °F - 55 °F 24% 29.78 in 6 mi WNW 10.4 mph - -   Clear
3:00 PM 87.8 °F 89.4 °F 64.4 °F 46% 29.77 in - WNW 13.8 mph - N/A   Clear
3:30 PM 87.8 °F 89.4 °F 64.4 °F 46% 29.77 in - WNW 13.8 mph - N/A   Clear
4:00 PM 87.8 °F 86.1 °F 55.4 °F 33% 29.77 in - NW 12.7 mph - N/A   Clear
5:00 PM 87.8 °F 86.5 °F 57.2 °F 35% 29.77 in - NW 12.7 mph - N/A   Clear
6:00 PM 85 °F - 55 °F 26% 29.79 in 6 mi NNW 13.8 mph - -   Clear
6:00 PM 86.0 °F 84.5 °F 55.4 °F 35% 29.80 in - NNW 13.8 mph - N/A   Clear
6:30 PM 86.0 °F 84.5 °F 55.4 °F 35% 29.80 in - NNW 13.8 mph - N/A   Clear
7:00 PM 82.4 °F 81.7 °F 55.4 °F 39% 29.83 in - North 16.1 mph - N/A   Clear
7:30 PM 82.4 °F 81.7 °F 55.4 °F 39% 29.83 in - North 16.1 mph - N/A   Clear
8:00 PM 82.4 °F 81.4 °F 53.6 °F 37% 29.83 in - North 9.2 mph - N/A   Clear
9:00 PM 81 °F - 55 °F 30% 29.83 in 6 mi North 15.0 mph - -   Clear
11:00 PM 77.0 °F - 57.2 °F 50% 29.89 in - North 10.4 mph - N/A   Clear